STARLINK-31606, 59571

Orbit data source: Space-Track

STARLINK-31606, 59571 is a payload satellite owned by SpaceX/Seattle (US) in LEO that was launched on Tue, 23 Apr 2024 UTC via an FALCON 9 launch vehicle from the Air Force Eastern Test Range (AFETR). Payload-class satellites include a variety of spacecraft equipped with specific instruments for various scientific and technological missions. These include communications satellites like Starlink; space stations such as the ISS; scientific satellites like the Hubble; Earth observation satellites from companies like Planet Labs, Umbra, and HawkEye 360; GPS; miniature CubeSats for education and research; and military/defense satellites.

Loading next visibility...
Identifier
59571, 2024-076H
Orbit
LEO
Country
Flag of USUS
Related business
Manufacturer
SpaceX/Seattle
Mission
Operational Commercial Communications
Bus & Motor
STARLINK V2M, Unknown motor
Mass
730 kg wet, ~700 kg dry
Launch date (UTC)
2024-04-23 (2 years ago)
Launch vehicle
FALCON 9
Launch site
Air Force Eastern Test Range (AFETR)
Object type
Payload
Rocket body
Debris
Shape & HBR
Box + 2 Pan, 17.7 m
Radar Cross Section
33.884 m², Large (>1 m²)

Expand to show TLE details & history
Last TLE update: 6 hours ago

TLE from 6 hours ago
0 STARLINK-31606
1 59571U 24076H   25303.33335648  .00012731  00000-0  47161-3 0  9990
2 59571  43.0039  24.7731 0001369 263.5400   6.7636 15.27562063  5821
Epoch: 2025-10-30T08:00Z
TLE epoch observation values (Epoch: 2025-10-30T08:00:01.999Z)
Latitude
-43.16123°
Longitude
136.28792°
Altitude
495.52 km
Speed
7.618 km/s
True Right ascension
19h 40m 45s
True Declination
-42° 58' 59"
Sunlit
Object was in daylight at epoch
Visualization orbit readout
Latitude
Unknown
Longitude
Unknown
Altitude
Unknown
Speed
Unknown
Apparent Right ascension
Unknown
Apparent Declination
Unknown
Sunlit
N/A
Visualization observer readout
Local Sidereal Time
09:09:08
Azimuth
Unknown
Elevation
Unknown
Doppler factor
Unknown
Orbital elements
Apogee altitude
485.987 km
Perigee altitude
484.108 km
Semi-major axis
6,863.184 km
Eccentricity
0.00014
Inclination
43.0039°
RAAN
24.7731°
Arg. of periapsis
263.54°
True anomaly
6.76545°
Mean anomaly
6.7636°
Eccentric anomaly
6.76452°
Mean motion
3.81729 °/min
Orbital period
94.31 mins
BSTAR
0.00047161
Loading maneuver chart data...
Computing Atmospheric mass density...
Loading historical data...
Loading historical data...
Loading historical data...
Loading historical data...
Loading historical data...
Loading historical data...
Loading historical data...

Documentation

Showing up to 5 results
|